SWA878 KDTW-KMDW

Flight info

Callsign SWA878
Flight time 0h 52m
Altitude 22000
Route CCOBB3 ZEGBI LEROY BAGEL PANGG7
Aircraft B38M/M-SADE2E3GHIJ4J7P2RWZ/LB1D1

Departure

Time 2026-05-07 11:22
Airport Detroit Metropolitan Wayne County Airport (KDTW)

Arrival

Time 2026-05-07 12:15
Airport Chicago Midway International Airport (KMDW)
Time Latitude Longitude Altitude Speed Heading
2026-05-07 10:56 42.22824 -83.34739 651 ft 0 kts 118°
2026-05-07 11:10 42.22830 -83.34755 651 ft 4 kts 118°
2026-05-07 11:11 42.22841 -83.34784 653 ft 4 kts 122°
2026-05-07 11:11 42.22859 -83.34803 653 ft 4 kts 179°
2026-05-07 11:11 42.22881 -83.34793 653 ft 2 kts 208°
2026-05-07 11:11 42.22887 -83.34789 653 ft 0 kts 208°
2026-05-07 11:13 42.22886 -83.34789 653 ft 0 kts 208°
2026-05-07 11:14 42.22886 -83.34790 653 ft 0 kts 208°
2026-05-07 11:16 42.22874 -83.34798 654 ft 6 kts 208°
2026-05-07 11:16 42.22814 -83.34842 651 ft 13 kts 208°
2026-05-07 11:16 42.22711 -83.34916 651 ft 20 kts 208°
2026-05-07 11:17 42.22570 -83.35023 651 ft 26 kts 208°
2026-05-07 11:17 42.22419 -83.35160 653 ft 27 kts 229°
2026-05-07 11:17 42.22293 -83.35337 652 ft 26 kts 227°
2026-05-07 11:17 42.22136 -83.35461 651 ft 27 kts 208°
2026-05-07 11:18 42.21970 -83.35582 652 ft 24 kts 201°
2026-05-07 11:18 42.21833 -83.35477 651 ft 24 kts 118°
2026-05-07 11:18 42.21826 -83.35244 651 ft 26 kts 88°
2026-05-07 11:18 42.21829 -83.35004 652 ft 25 kts 89°
2026-05-07 11:19 42.21832 -83.34779 652 ft 15 kts 89°
2026-05-07 11:19 42.21833 -83.34641 652 ft 16 kts 89°
2026-05-07 11:19 42.21862 -83.34501 655 ft 17 kts 34°
2026-05-07 11:19 42.21972 -83.34418 652 ft 19 kts 29°
2026-05-07 11:20 42.22094 -83.34326 653 ft 21 kts 27°
2026-05-07 11:20 42.22229 -83.34227 651 ft 23 kts 30°
2026-05-07 11:20 42.22373 -83.34120 652 ft 24 kts 28°
2026-05-07 11:20 42.22526 -83.34007 655 ft 26 kts 28°
2026-05-07 11:21 42.22684 -83.33890 653 ft 25 kts 28°
2026-05-07 11:21 42.22758 -83.33809 652 ft 8 kts 90°
2026-05-07 11:21 42.22741 -83.33733 655 ft 9 kts 116°
2026-05-07 11:21 42.22694 -83.33714 655 ft 8 kts 207°
2026-05-07 11:22 42.22603 -83.33782 654 ft 39 kts 208°
2026-05-07 11:22 42.22104 -83.34150 652 ft 122 kts 208°
2026-05-07 11:22 42.21185 -83.34816 887 ft 165 kts 208°
2026-05-07 11:22 42.20132 -83.35620 1648 ft 181 kts 216°
2026-05-07 11:23 42.19219 -83.36810 2513 ft 187 kts 234°
2026-05-07 11:23 42.18407 -83.38280 2991 ft 208 kts 237°
2026-05-07 11:23 42.17502 -83.39948 3432 ft 232 kts 236°
2026-05-07 11:23 42.16520 -83.41724 4270 ft 237 kts 235°
2026-05-07 11:24 42.15504 -83.43546 4957 ft 251 kts 234°
2026-05-07 11:24 42.14437 -83.45445 5835 ft 253 kts 234°
2026-05-07 11:24 42.13366 -83.47346 6694 ft 257 kts 234°
2026-05-07 11:24 42.12277 -83.49274 6977 ft 259 kts 235°
2026-05-07 11:25 42.11186 -83.51199 6994 ft 258 kts 234°
2026-05-07 11:25 42.10097 -83.53119 6997 ft 258 kts 235°
2026-05-07 11:25 42.09007 -83.55043 7004 ft 258 kts 235°
2026-05-07 11:25 42.07916 -83.56962 7002 ft 259 kts 235°
2026-05-07 11:26 42.06823 -83.58898 7016 ft 260 kts 237°
2026-05-07 11:26 42.06188 -83.61128 7523 ft 255 kts 266°
2026-05-07 11:26 42.06391 -83.63456 8357 ft 259 kts 288°
2026-05-07 11:26 42.07246 -83.65573 9314 ft 259 kts 302°
2026-05-07 11:27 42.08261 -83.67593 10133 ft 262 kts 302°
2026-05-07 11:27 42.09330 -83.69662 10615 ft 278 kts 302°
2026-05-07 11:27 42.10488 -83.71865 10918 ft 298 kts 303°
2026-05-07 11:27 42.11721 -83.74185 11335 ft 311 kts 303°
2026-05-07 11:28 42.13000 -83.76576 12051 ft 315 kts 303°
2026-05-07 11:28 42.14287 -83.78976 12880 ft 317 kts 303°
2026-05-07 11:28 42.15132 -83.80547 13425 ft 319 kts 302°
2026-05-07 11:28 42.16453 -83.83006 14224 ft 321 kts 302°
2026-05-07 11:29 42.17766 -83.85449 14980 ft 324 kts 302°
2026-05-07 11:29 42.19093 -83.87921 15726 ft 326 kts 302°
2026-05-07 11:29 42.20428 -83.90409 16510 ft 329 kts 302°
2026-05-07 11:29 42.21549 -83.93079 17234 ft 327 kts 286°
2026-05-07 11:30 42.21963 -83.97126 18189 ft 329 kts 273°
2026-05-07 11:30 42.22048 -83.99173 18601 ft 331 kts 272°
2026-05-07 11:30 42.22150 -84.02286 19262 ft 333 kts 272°
2026-05-07 11:30 42.22233 -84.05415 19918 ft 334 kts 271°
2026-05-07 11:31 42.22304 -84.08553 20565 ft 336 kts 271°
2026-05-07 11:31 42.22367 -84.11718 21201 ft 338 kts 270°
2026-05-07 11:31 42.22428 -84.14891 21791 ft 341 kts 270°
2026-05-07 11:31 42.22497 -84.18120 21969 ft 347 kts 270°
2026-05-07 11:32 42.22632 -84.24708 22009 ft 354 kts 270°
2026-05-07 11:32 42.22698 -84.28022 22014 ft 354 kts 270°
2026-05-07 11:32 42.22764 -84.31350 22018 ft 355 kts 270°
2026-05-07 11:33 42.22829 -84.34693 22016 ft 357 kts 270°
2026-05-07 11:33 42.22891 -84.38042 22003 ft 358 kts 270°
2026-05-07 11:33 42.22952 -84.41397 22001 ft 358 kts 270°
2026-05-07 11:33 42.23011 -84.44755 21999 ft 358 kts 270°
2026-05-07 11:34 42.23069 -84.48114 22002 ft 358 kts 270°
2026-05-07 11:34 42.23127 -84.51466 21999 ft 358 kts 270°
2026-05-07 11:34 42.23184 -84.54826 21999 ft 358 kts 270°
2026-05-07 11:34 42.23239 -84.58179 22000 ft 358 kts 270°
2026-05-07 11:35 42.23293 -84.61537 22000 ft 358 kts 270°
2026-05-07 11:35 42.23347 -84.64901 22000 ft 358 kts 270°
2026-05-07 11:35 42.23400 -84.68256 22005 ft 359 kts 270°
2026-05-07 11:35 42.23451 -84.71585 22002 ft 360 kts 270°
2026-05-07 11:36 42.23502 -84.74966 22001 ft 361 kts 270°
2026-05-07 11:36 42.23552 -84.78353 22001 ft 361 kts 270°
2026-05-07 11:36 42.23601 -84.81740 21999 ft 361 kts 270°
2026-05-07 11:36 42.23650 -84.85169 21999 ft 361 kts 270°
2026-05-07 11:37 42.23697 -84.88558 21999 ft 361 kts 270°
2026-05-07 11:37 42.23742 -84.91902 22000 ft 361 kts 270°
2026-05-07 11:37 42.23788 -84.95288 21997 ft 361 kts 270°
2026-05-07 11:37 42.23832 -84.98673 21999 ft 361 kts 270°
2026-05-07 11:38 42.23875 -85.02066 21999 ft 361 kts 270°
2026-05-07 11:38 42.23918 -85.05455 21998 ft 361 kts 270°
2026-05-07 11:38 42.23938 -85.08848 22000 ft 362 kts 269°
2026-05-07 11:38 42.23924 -85.12246 22001 ft 363 kts 269°
2026-05-07 11:39 42.23912 -85.15651 22000 ft 363 kts 269°
2026-05-07 11:39 42.23902 -85.19055 21998 ft 363 kts 269°
2026-05-07 11:39 42.23891 -85.22457 21999 ft 363 kts 269°
2026-05-07 11:39 42.23876 -85.25855 21998 ft 363 kts 268°
2026-05-07 11:40 42.23419 -85.29185 21991 ft 364 kts 251°
2026-05-07 11:40 42.22151 -85.32162 22021 ft 371 kts 234°
2026-05-07 11:40 42.20222 -85.34526 22023 ft 382 kts 220°
2026-05-07 11:40 42.17813 -85.36145 22022 ft 393 kts 206°
2026-05-07 11:41 42.15201 -85.37295 22029 ft 396 kts 205°
2026-05-07 11:41 42.12565 -85.38379 22028 ft 397 kts 204°
2026-05-07 11:41 42.09915 -85.39428 22006 ft 397 kts 204°
2026-05-07 11:41 42.07259 -85.40457 22023 ft 397 kts 203°
2026-05-07 11:42 42.04603 -85.41472 22031 ft 397 kts 203°
2026-05-07 11:42 42.01945 -85.42480 22036 ft 397 kts 203°
2026-05-07 11:42 41.99282 -85.43488 22034 ft 397 kts 203°
2026-05-07 11:42 41.96621 -85.44494 22034 ft 397 kts 203°
2026-05-07 11:43 41.93963 -85.45497 22035 ft 397 kts 203°
2026-05-07 11:43 41.91298 -85.46501 22026 ft 397 kts 203°
2026-05-07 11:43 41.88636 -85.47505 21999 ft 397 kts 203°
2026-05-07 11:43 41.85979 -85.48505 22022 ft 397 kts 203°
2026-05-07 11:44 41.83323 -85.49504 22028 ft 396 kts 203°
2026-05-07 11:44 41.80668 -85.50501 22025 ft 396 kts 203°
2026-05-07 11:44 41.78012 -85.51498 22026 ft 396 kts 203°
2026-05-07 11:44 41.75356 -85.52495 22028 ft 397 kts 203°
2026-05-07 11:45 41.72700 -85.53490 22026 ft 396 kts 203°
2026-05-07 11:45 41.70041 -85.54486 22027 ft 396 kts 203°
2026-05-07 11:45 41.67390 -85.55479 22009 ft 396 kts 203°
2026-05-07 11:45 41.64742 -85.56468 22026 ft 390 kts 203°
2026-05-07 11:46 41.62195 -85.57416 22052 ft 371 kts 204°
2026-05-07 11:46 41.59761 -85.58324 22062 ft 355 kts 204°
2026-05-07 11:46 41.57451 -85.59247 21962 ft 337 kts 211°
2026-05-07 11:46 41.55469 -85.60783 21446 ft 334 kts 226°
2026-05-07 11:47 41.53937 -85.63067 20932 ft 329 kts 242°
2026-05-07 11:47 41.52954 -85.65801 20537 ft 328 kts 253°
2026-05-07 11:47 41.52476 -85.68772 20099 ft 328 kts 263°
2026-05-07 11:47 41.52244 -85.71803 19635 ft 328 kts 266°
2026-05-07 11:48 41.52122 -85.74838 19179 ft 327 kts 268°
2026-05-07 11:48 41.52075 -85.77862 18743 ft 325 kts 269°
2026-05-07 11:48 41.52076 -85.80860 18312 ft 323 kts 270°
2026-05-07 11:48 41.52102 -85.83848 17842 ft 320 kts 271°
2026-05-07 11:49 41.52140 -85.86804 17410 ft 317 kts 271°
2026-05-07 11:49 41.52186 -85.89730 17004 ft 314 kts 271°
2026-05-07 11:49 41.52237 -85.92620 16614 ft 310 kts 271°
2026-05-07 11:49 41.52288 -85.95486 16231 ft 308 kts 271°
2026-05-07 11:50 41.52341 -85.98363 15829 ft 313 kts 271°
2026-05-07 11:50 41.52394 -86.01287 15424 ft 317 kts 271°
2026-05-07 11:50 41.52447 -86.04221 15041 ft 317 kts 271°
2026-05-07 11:50 41.52490 -86.07156 14672 ft 316 kts 270°
2026-05-07 11:51 41.52476 -86.10087 14246 ft 315 kts 270°
2026-05-07 11:51 41.52463 -86.12995 13876 ft 312 kts 270°
2026-05-07 11:51 41.52451 -86.15873 13464 ft 308 kts 270°
2026-05-07 11:51 41.52440 -86.18715 13081 ft 305 kts 270°
2026-05-07 11:52 41.52429 -86.21525 12709 ft 301 kts 270°
2026-05-07 11:52 41.52417 -86.24293 12355 ft 297 kts 270°
2026-05-07 11:52 41.52405 -86.27043 12003 ft 298 kts 270°
2026-05-07 11:52 41.52392 -86.29831 11642 ft 303 kts 270°
2026-05-07 11:53 41.52379 -86.32655 11351 ft 302 kts 270°
2026-05-07 11:53 41.52364 -86.35415 11211 ft 292 kts 270°
2026-05-07 11:53 41.52350 -86.38073 11099 ft 281 kts 270°
2026-05-07 11:53 41.52334 -86.40620 11019 ft 270 kts 270°
2026-05-07 11:54 41.52318 -86.43088 10832 ft 262 kts 270°
2026-05-07 11:54 41.52302 -86.45483 10675 ft 254 kts 270°
2026-05-07 11:54 41.52286 -86.47807 10540 ft 246 kts 270°
2026-05-07 11:54 41.52270 -86.50078 10416 ft 246 kts 270°
2026-05-07 11:55 41.52253 -86.52361 10291 ft 246 kts 270°
2026-05-07 11:55 41.52236 -86.54642 10165 ft 246 kts 270°
2026-05-07 11:55 41.52218 -86.56919 10053 ft 244 kts 270°
2026-05-07 11:55 41.52201 -86.59176 9889 ft 243 kts 271°
2026-05-07 11:56 41.52183 -86.61397 9705 ft 242 kts 271°
2026-05-07 11:56 41.52165 -86.63642 9543 ft 242 kts 271°
2026-05-07 11:56 41.52146 -86.65880 9384 ft 242 kts 271°
2026-05-07 11:56 41.52126 -86.68119 9211 ft 241 kts 271°
2026-05-07 11:57 41.52107 -86.70354 9061 ft 241 kts 271°
2026-05-07 11:57 41.52087 -86.72589 8901 ft 241 kts 271°
2026-05-07 11:57 41.52066 -86.74819 8742 ft 240 kts 271°
2026-05-07 11:57 41.52045 -86.77046 8582 ft 240 kts 272°
2026-05-07 11:58 41.52024 -86.79274 8423 ft 240 kts 272°
2026-05-07 11:58 41.52002 -86.81495 8258 ft 239 kts 272°
2026-05-07 11:58 41.51980 -86.83712 8088 ft 239 kts 272°
2026-05-07 11:58 41.51957 -86.85928 7924 ft 239 kts 272°
2026-05-07 11:59 41.51935 -86.88144 7761 ft 239 kts 272°
2026-05-07 11:59 41.51911 -86.90364 7605 ft 239 kts 272°
2026-05-07 11:59 41.51887 -86.92581 7440 ft 239 kts 272°
2026-05-07 11:59 41.51863 -86.94798 7273 ft 239 kts 272°
2026-05-07 12:00 41.51838 -86.97014 7144 ft 239 kts 273°
2026-05-07 12:00 41.51812 -86.99230 6990 ft 239 kts 273°
2026-05-07 12:00 41.51786 -87.01442 6838 ft 238 kts 273°
2026-05-07 12:00 41.51760 -87.03656 6680 ft 238 kts 273°
2026-05-07 12:01 41.51733 -87.05869 6528 ft 239 kts 273°
2026-05-07 12:01 41.51706 -87.08081 6360 ft 239 kts 274°
2026-05-07 12:01 41.51678 -87.10293 6196 ft 238 kts 273°
2026-05-07 12:01 41.51651 -87.12500 6052 ft 237 kts 274°
2026-05-07 12:02 41.51957 -87.14601 5895 ft 230 kts 299°
2026-05-07 12:02 41.52980 -87.16165 5794 ft 229 kts 324°
2026-05-07 12:02 41.54421 -87.17106 5715 ft 232 kts 334°
2026-05-07 12:02 41.55918 -87.17924 5607 ft 233 kts 335°
2026-05-07 12:03 41.57425 -87.18721 5493 ft 233 kts 336°
2026-05-07 12:03 41.58936 -87.19505 5384 ft 233 kts 336°
2026-05-07 12:03 41.60450 -87.20281 5278 ft 233 kts 336°
2026-05-07 12:03 41.61971 -87.21053 5168 ft 233 kts 336°
2026-05-07 12:04 41.63490 -87.21819 5064 ft 233 kts 336°
2026-05-07 12:04 41.65002 -87.22581 4945 ft 230 kts 336°
2026-05-07 12:04 41.66468 -87.23317 4829 ft 221 kts 336°
2026-05-07 12:04 41.67874 -87.24023 4726 ft 211 kts 336°
2026-05-07 12:05 41.69221 -87.24699 4619 ft 202 kts 336°
2026-05-07 12:05 41.70526 -87.25355 4522 ft 201 kts 336°
2026-05-07 12:05 41.71836 -87.26013 4436 ft 202 kts 336°
2026-05-07 12:05 41.73150 -87.26672 4344 ft 202 kts 336°
2026-05-07 12:06 41.74465 -87.27333 4256 ft 202 kts 336°
2026-05-07 12:06 41.75772 -87.28032 4154 ft 203 kts 332°
2026-05-07 12:06 41.77052 -87.28832 4060 ft 203 kts 332°
2026-05-07 12:06 41.78333 -87.29629 3969 ft 203 kts 333°
2026-05-07 12:07 41.79617 -87.30423 3872 ft 204 kts 332°
2026-05-07 12:07 41.80907 -87.31219 3772 ft 204 kts 332°
2026-05-07 12:07 41.82198 -87.32015 3686 ft 204 kts 332°
2026-05-07 12:07 41.83490 -87.32811 3584 ft 204 kts 331°
2026-05-07 12:08 41.84536 -87.33985 3445 ft 199 kts 300°
2026-05-07 12:08 41.84909 -87.35749 3342 ft 200 kts 273°
2026-05-07 12:08 41.84946 -87.37621 3286 ft 202 kts 272°
2026-05-07 12:08 41.84973 -87.39504 3197 ft 202 kts 272°
2026-05-07 12:09 41.84992 -87.41386 3098 ft 202 kts 271°
2026-05-07 12:09 41.85003 -87.43264 3015 ft 201 kts 271°
2026-05-07 12:09 41.85010 -87.45139 2982 ft 201 kts 271°
2026-05-07 12:09 41.85014 -87.47015 3009 ft 201 kts 271°
2026-05-07 12:10 41.85016 -87.48887 3009 ft 201 kts 270°
2026-05-07 12:10 41.85016 -87.50765 2997 ft 201 kts 271°
2026-05-07 12:10 41.85015 -87.52641 3006 ft 201 kts 271°
2026-05-07 12:10 41.85013 -87.54511 3005 ft 201 kts 270°
2026-05-07 12:11 41.84946 -87.56388 3007 ft 202 kts 268°
2026-05-07 12:11 41.84866 -87.58266 3008 ft 202 kts 268°
2026-05-07 12:11 41.84789 -87.60143 3015 ft 202 kts 268°
2026-05-07 12:11 41.84698 -87.62019 2989 ft 202 kts 267°
2026-05-07 12:12 41.84601 -87.63914 2691 ft 201 kts 266°
2026-05-07 12:12 41.84231 -87.65697 2379 ft 194 kts 249°
2026-05-07 12:12 41.83730 -87.67277 2118 ft 174 kts 249°
2026-05-07 12:12 41.83248 -87.68662 1902 ft 154 kts 243°
2026-05-07 12:13 41.82691 -87.69774 1748 ft 137 kts 234°
2026-05-07 12:13 41.82046 -87.70700 1510 ft 135 kts 227°
2026-05-07 12:13 41.81365 -87.71563 1296 ft 135 kts 225°
2026-05-07 12:13 41.80677 -87.72434 1091 ft 136 kts 225°
2026-05-07 12:14 41.79992 -87.73313 880 ft 137 kts 224°
2026-05-07 12:14 41.79293 -87.74189 717 ft 138 kts 224°
2026-05-07 12:14 41.78618 -87.75046 631 ft 121 kts 224°
2026-05-07 12:14 41.78182 -87.75596 634 ft 60 kts 223°
2026-05-07 12:15 41.77973 -87.75861 637 ft 22 kts 217°
2026-05-07 12:15 41.77903 -87.75807 634 ft 15 kts 78°
2026-05-07 12:15 41.77930 -87.75720 633 ft 6 kts 49°
2026-05-07 12:15 41.77948 -87.75697 634 ft 3 kts 43°
2026-05-07 12:16 41.77971 -87.75668 631 ft 6 kts 43°
2026-05-07 12:16 41.78005 -87.75622 635 ft 8 kts 46°
2026-05-07 12:16 41.78038 -87.75577 634 ft 12 kts 44°
2026-05-07 12:16 41.78108 -87.75491 634 ft 15 kts 42°
2026-05-07 12:17 41.78190 -87.75389 634 ft 17 kts 44°
2026-05-07 12:17 41.78280 -87.75270 635 ft 19 kts 43°
2026-05-07 12:17 41.78417 -87.75096 640 ft 22 kts 43°
2026-05-07 12:17 41.78494 -87.74998 634 ft 23 kts 43°
2026-05-07 12:18 41.78611 -87.74850 637 ft 14 kts 44°
2026-05-07 12:18 41.78594 -87.74759 631 ft 12 kts 134°
2026-05-07 12:18 41.78554 -87.74688 634 ft 7 kts 100°
2026-05-07 12:18 41.78582 -87.74635 634 ft 9 kts 34°
2026-05-07 12:19 41.78604 -87.74613 631 ft 0 kts 37°
2026-05-07 12:19 41.78608 -87.74610 631 ft 0 kts 37°
2026-05-07 12:19 41.78608 -87.74609 631 ft 0 kts 37°